1511762400.09,17418,6.75,72932.3,-16.59,-16.93,-16.79,0,*64
1511762401.33,17419,6.75,72928.8,-16.57,-16.83,-16.75,0,*66
1511762402.58,17420,6.75,72924.0,-16.57,-16.83,-16.75,0,*6C
1511762403.82,17421,6.75,72930.8,-16.57,-16.89,-16.83,0,*6E
1511762405.04,17422,6.75,72930.8,-16.55,-16.75,-16.75,0,*65
1511762406.28,17423,6.75,72930.3,-16.57,-16.83,-16.89,0,*6C
1511762407.52,17424,6.75,72932.0,-16.57,-16.89,-16.83,0,*6B
1511762408.76,17425,6.75,72934.5,-16.57,-16.83,-16.89,0,*6A
1511762410.0,17426,6.75,72934.3,-16.57,-16.89,-16.83,0,*69
1511762411.24,17427,6.75,72934.3,-16.57,-16.83,-16.89,0,*68
1511762412.48,17428,6.75,72934.5,-16.57,-16.89,-16.89,0,*6D
1511762413.71,17429,6.75,72936.0,-16.57,-16.89,-16.89,0,*6C
1511762414.95,17430,6.75,72938.0,-16.55,-17.03,-16.83,0,*6F
1511762416.16,17431,6.75,72936.5,-16.55,-16.97,-16.89,0,*68
1511762417.37,17432,6.75,72938.5,-16.55,-16.97,-16.89,0,*6B
1511762418.61,17433,6.75,72942.0,-16.57,-16.97,-16.83,0,*62
1511762419.84,17434,6.75,72942.8,-16.57,-16.97,-16.89,0,*6F
1511762421.06,17435,6.75,72940.8,-16.55,-16.97,-16.83,0,*66
1511762422.32,17436,6.75,72940.5,-16.57,-17.03,-16.89,0,*61
1511762423.53,17437,6.75,72938.3,-16.55,-16.89,-16.83,0,*6B
1511762424.78,17438,6.75,72936.0,-16.53,-16.83,-16.83,0,*68
1511762425.99,17439,6.75,72936.0,-16.55,-16.89,-16.75,0,*6C
1511762427.21,17440,6.75,72936.5,-16.55,-16.83,-16.83,0,*61
1511762428.43,17441,6.75,72938.3,-16.55,-16.75,-16.75,0,*60
1511762429.72,17442,6.75,72936.8,-16.53,-16.69,-16.69,0,*65
1511762431.01,17443,6.75,72934.8,-16.51,-16.69,-16.65,0,*6A
1511762432.3,17444,6.75,72938.8,-16.53,-16.69,-16.69,0,*63
1511762433.59,17445,6.75,72938.3,-16.53,-16.69,-16.69,0,*62
1511762434.87,17446,6.75,72938.3,-16.53,-16.69,-16.69,0,*61
1511762436.15,17447,6.75,72936.3,-16.51,-16.65,-16.55,0,*61
1511762437.42,17448,6.75,72934.0,-16.53,-16.69,-16.59,0,*6C
1511762438.71,17449,6.75,72938.8,-16.53,-16.69,-16.69,0,*6E
1511762439.99,17450,6.75,72938.3,-16.53,-16.69,-16.69,0,*66
1511762441.29,17451,6.75,72936.0,-16.51,-16.65,-16.65,0,*65
1511762442.58,17452,6.75,72936.5,-16.53,-16.69,-16.69,0,*64
1511762443.87,17453,6.75,72938.8,-16.53,-16.69,-16.69,0,*65
1511762445.16,17454,6.75,72934.5,-16.51,-16.69,-16.65,0,*6C
1511762446.45,17455,6.75,72936.3,-16.53,-16.69,-16.69,0,*63
1511762447.71,17456,6.75,72934.3,-16.53,-16.75,-16.69,0,*6D
1511762449.01,17457,6.75,72936.0,-16.51,-16.69,-16.65,0,*6F
1511762450.31,17458,6.75,72936.3,-16.51,-16.69,-16.65,0,*60
1511762451.61,17459,6.75,72932.0,-16.51,-16.65,-16.65,0,*6D
1511762452.89,17460,6.75,72934.8,-16.51,-16.65,-16.55,0,*64
1511762454.16,17461,6.75,72932.3,-16.49,-16.65,-16.65,0,*6F
1511762455.46,17462,6.75,72934.5,-16.51,-16.65,-16.65,0,*65
1511762456.73,17463,6.75,72934.5,-16.49,-16.65,-16.65,0,*6D
1511762458.0,17464,6.75,72932.5,-16.49,-16.69,-16.69,0,*6A
1511762459.3,17465,6.75,72934.8,-16.51,-16.65,-16.65,0,*62
1511762460.55,17466,6.75,72932.0,-16.49,-16.79,-16.69,0,*69
1511762461.79,17467,6.75,72932.0,-16.45,-16.75,-16.65,0,*64
1511762463.01,17468,6.75,72934.0,-16.49,-16.79,-16.79,0,*66
1511762464.24,17469,6.75,72932.8,-16.49,-16.83,-16.79,0,*62
1511762465.46,17470,6.75,72932.8,-16.45,-16.75,-16.75,0,*63
1511762466.68,17471,6.75,72932.3,-16.45,-16.79,-16.79,0,*62
1511762467.9,17472,6.75,72936.0,-16.45,-16.75,-16.75,0,*61
1511762469.13,17473,6.75,72934.8,-16.49,-16.83,-16.83,0,*6C
1511762470.35,17474,6.75,72938.3,-16.45,-16.79,-16.75,0,*6B
1511762471.57,17475,6.75,72938.5,-16.49,-16.83,-16.83,0,*6A
1511762472.79,17476,6.75,72934.3,-16.45,-16.79,-16.79,0,*65
1511762474.01,17477,6.75,72932.5,-16.49,-16.97,-16.83,0,*6D
1511762475.23,17478,6.75,72934.5,-16.45,-16.93,-16.79,0,*6F
1511762476.44,17479,6.75,72936.8,-16.45,-16.89,-16.89,0,*6A
1511762477.66,17480,6.75,72938.0,-16.45,-16.89,-16.79,0,*63
1511762478.87,17481,6.75,72938.8,-16.45,-16.93,-16.89,0,*66
1511762480.09,17482,6.75,72940.8,-16.45,-16.97,-16.83,0,*6B
1511762481.3,17483,6.75,72936.0,-16.45,-16.89,-16.79,0,*60
1511762482.53,17484,6.75,72938.5,-16.45,-16.79,-16.75,0,*64
1511762483.75,17485,6.75,72940.5,-16.45,-16.79,-16.75,0,*65
1511762484.99,17486,6.75,72938.5,-16.45,-16.89,-16.65,0,*68
1511762486.21,17487,6.75,72942.8,-16.45,-16.79,-16.75,0,*67
1511762487.44,17488,6.75,72940.0,-16.45,-16.89,-16.75,0,*67
1511762488.68,17489,6.75,72936.3,-16.43,-16.79,-16.79,0,*63
1511762489.93,17490,6.75,72942.3,-16.43,-16.79,-16.75,0,*67
1511762491.18,17491,6.75,72940.3,-16.43,-16.75,-16.79,0,*66
1511762492.43,17492,6.75,72942.3,-16.43,-16.75,-16.75,0,*69
1511762493.68,17493,6.75,72940.8,-16.43,-16.79,-16.75,0,*64
1511762494.95,17494,6.75,72938.0,-16.43,-16.79,-16.65,0,*62
1511762496.2,17495,6.75,72938.0,-16.41,-16.69,-16.59,0,*6F
1511762497.47,17496,6.75,72940.8,-16.43,-16.75,-16.65,0,*6C
1511762498.77,17497,6.75,72938.8,-16.43,-16.65,-16.65,0,*6C
1511762500.06,17498,6.75,72936.8,-16.43,-16.65,-16.69,0,*6F
1511762501.29,17499,6.75,72936.3,-16.41,-16.75,-16.59,0,*6E
1511762502.59,17500,6.75,72936.0,-16.43,-16.65,-16.65,0,*63
1511762503.86,17501,6.75,72932.5,-16.43,-16.75,-16.65,0,*63
1511762505.13,17502,6.75,72936.0,-16.41,-16.69,-16.69,0,*63
1511762506.38,17503,6.75,72940.3,-16.41,-16.69,-16.59,0,*61
1511762507.63,17504,6.75,72940.3,-16.43,-16.75,-16.75,0,*67
1511762508.88,17505,6.75,72938.8,-16.43,-16.75,-16.75,0,*66
1511762510.15,17506,6.75,72936.0,-16.41,-16.69,-16.69,0,*67
1511762511.4,17507,6.75,72938.5,-16.43,-16.75,-16.75,0,*64
1511762512.65,17508,6.75,72936.3,-16.41,-16.75,-16.69,0,*64
1511762513.9,17509,6.75,72938.8,-16.41,-16.69,-16.75,0,*65
1511762515.14,17510,6.75,72940.5,-16.41,-16.75,-16.69,0,*6D
1511762516.37,17511,6.75,72942.0,-16.41,-16.75,-16.75,0,*61
1511762517.6,17512,6.75,72940.5,-16.41,-16.75,-16.75,0,*62
1511762518.85,17513,6.75,72942.0,-16.41,-16.75,-16.69,0,*6E
1511762520.12,17514,6.75,72938.0,-16.39,-16.75,-16.69,0,*66
1511762521.4,17515,6.75,72942.8,-16.39,-16.69,-16.75,0,*67
1511762522.67,17516,6.75,72936.5,-16.39,-16.69,-16.75,0,*64
1511762523.94,17517,6.75,72940.3,-16.37,-16.69,-16.65,0,*6A
1511762525.19,17518,6.75,72938.8,-16.39,-16.75,-16.75,0,*67
1511762526.44,17519,6.75,72936.5,-16.37,-16.79,-16.69,0,*69
1511762527.69,17520,6.75,72936.0,-16.39,-16.89,-16.59,0,*61
1511762528.94,17521,6.75,72936.0,-16.39,-16.89,-16.75,0,*6E
1511762530.19,17522,6.75,72938.3,-16.39,-16.83,-16.83,0,*6E
1511762531.41,17523,6.75,72936.3,-16.37,-16.83,-16.79,0,*64
1511762532.65,17524,6.75,72938.3,-16.39,-16.89,-16.83,0,*62
1511762533.9,17525,6.75,72936.0,-16.39,-16.89,-16.89,0,*69
1511762535.14,17526,6.75,72938.0,-16.39,-16.89,-16.83,0,*60
1511762536.39,17527,6.75,72938.3,-16.39,-16.83,-16.83,0,*6B
1511762537.64,17528,6.75,72938.5,-16.39,-16.83,-16.83,0,*64
1511762538.89,17529,6.75,72938.8,-16.39,-16.89,-16.83,0,*6F
1511762540.11,17530,6.75,72934.8,-16.37,-16.83,-16.79,0,*66
1511762541.36,17531,6.75,72934.5,-16.39,-16.83,-16.75,0,*65
1511762542.61,17532,6.75,72936.5,-16.39,-16.83,-16.83,0,*6F
1511762543.86,17533,6.75,72934.3,-16.39,-16.83,-16.75,0,*67
1511762545.11,17534,6.75,72934.0,-16.37,-16.69,-16.79,0,*66
1511762546.35,17535,6.75,72932.0,-16.37,-16.83,-16.69,0,*62
1511762547.6,17536,6.75,72934.0,-16.39,-16.89,-16.75,0,*68
1511762548.82,17537,6.75,72932.3,-16.37,-16.83,-16.79,0,*61
1511762550.04,17538,6.75,72932.8,-16.37,-16.83,-16.83,0,*6B
1511762551.26,17539,6.75,72938.0,-16.37,-16.83,-16.79,0,*6F
1511762552.48,17540,6.75,72936.5,-16.37,-16.83,-16.83,0,*64
1511762553.7,17541,6.75,72938.0,-16.37,-16.79,-16.83,0,*60
1511762554.95,17542,6.75,72934.8,-16.39,-16.89,-16.83,0,*62
1511762556.19,17543,6.75,72934.8,-16.35,-16.83,-16.83,0,*65
1511762557.44,17544,6.75,72930.8,-16.35,-16.83,-16.79,0,*67
1511762558.66,17545,6.75,72934.8,-16.37,-16.83,-16.79,0,*64
1511762559.88,17546,6.75,72932.3,-16.37,-16.79,-16.83,0,*67
1511762561.15,17547,6.75,72936.8,-16.35,-16.83,-16.69,0,*65
1511762562.4,17548,6.75,72934.0,-16.35,-16.79,-16.83,0,*6B
1511762563.64,17549,6.75,72938.3,-16.35,-16.83,-16.79,0,*6A
1511762564.86,17550,6.75,72936.3,-16.37,-16.83,-16.83,0,*65
1511762566.1,17551,6.75,72938.0,-16.37,-16.93,-16.69,0,*61
1511762567.32,17552,6.75,72936.0,-16.37,-16.83,-16.79,0,*62
1511762568.57,17553,6.75,72936.3,-16.35,-16.83,-16.79,0,*61
1511762569.78,17554,6.75,72938.5,-16.37,-16.79,-16.79,0,*61
1511762571.03,17555,6.75,72942.3,-16.35,-16.79,-16.83,0,*67
1511762572.28,17556,6.75,72940.5,-16.35,-16.79,-16.79,0,*61
1511762573.52,17557,6.75,72942.8,-16.35,-16.83,-16.83,0,*60
1511762574.77,17558,6.75,72938.0,-16.35,-16.83,-16.79,0,*6A
1511762576.02,17559,6.75,72940.3,-16.35,-16.83,-16.83,0,*6E
1511762577.29,17560,6.75,72944.5,-16.35,-16.79,-16.69,0,*65
1511762578.53,17561,6.75,72940.8,-16.35,-16.79,-16.79,0,*65
1511762579.78,17562,6.75,72940.5,-16.35,-16.83,-16.79,0,*63
1511762581.05,17563,6.75,72942.8,-16.35,-16.79,-16.65,0,*6A
1511762582.32,17564,6.75,72942.0,-16.35,-16.79,-16.69,0,*61
1511762583.56,17565,6.75,72942.5,-16.35,-16.79,-16.79,0,*61
1511762584.81,17566,6.75,72944.0,-16.33,-16.79,-16.65,0,*69
1511762586.05,17567,6.75,72942.0,-16.33,-16.75,-16.65,0,*64
1511762587.32,17568,6.75,72942.5,-16.35,-16.83,-16.69,0,*68
1511762588.57,17569,6.75,72942.5,-16.35,-16.83,-16.79,0,*68
1511762589.79,17570,6.75,72942.5,-16.33,-16.75,-16.75,0,*63
1511762591.04,17571,6.75,72938.0,-16.35,-16.79,-16.79,0,*64
1511762592.28,17572,6.75,72938.0,-16.33,-16.79,-16.69,0,*60
1511762593.55,17573,6.75,72938.0,-16.35,-16.79,-16.69,0,*67
1511762594.77,17574,6.75,72938.8,-16.33,-16.75,-16.59,0,*69
1511762596.0,17575,6.75,72938.8,-16.33,-16.79,-16.75,0,*6A
1511762597.24,17576,6.75,72938.3,-16.33,-16.75,-16.65,0,*64
1511762598.53,17577,6.75,72938.8,-16.35,-16.69,-16.65,0,*6E
1511762599.8,17578,6.75,72942.8,-16.33,-16.65,-16.65,0,*6B
1511762601.07,17579,6.75,72940.8,-16.35,-16.79,-16.69,0,*6D
1511762602.32,17580,6.75,72942.0,-16.33,-16.75,-16.65,0,*6D
1511762603.58,17581,6.75,72944.0,-16.33,-16.65,-16.65,0,*6D
1511762604.83,17582,6.75,72940.5,-16.33,-16.65,-16.59,0,*61
1511762606.06,17583,6.75,72942.3,-16.33,-16.75,-16.59,0,*61
1511762607.32,17584,6.75,72944.3,-16.33,-16.65,-16.51,0,*6F
1511762608.57,17585,6.75,72940.0,-16.33,-16.65,-16.59,0,*66
1511762609.82,17586,6.75,72944.8,-16.33,-16.51,-16.59,0,*62
1511762611.09,17587,6.75,72942.0,-16.31,-16.51,-16.59,0,*61
1511762612.36,17588,6.75,72946.3,-16.31,-16.59,-16.65,0,*69
1511762613.65,17589,6.75,72940.0,-16.31,-16.65,-16.51,0,*60
1511762614.87,17590,6.75,72940.5,-16.29,-16.55,-16.45,0,*67
1511762616.14,17591,6.75,72942.3,-16.31,-16.65,-16.59,0,*61
1511762617.41,17592,6.75,72944.5,-16.33,-16.65,-16.65,0,*6F
1511762618.65,17593,6.75,72944.3,-16.33,-16.59,-16.65,0,*61
1511762619.93,17594,6.75,72944.8,-16.31,-16.65,-16.75,0,*6A
1511762621.18,17595,6.75,72940.3,-16.29,-16.69,-16.59,0,*60
1511762622.45,17596,6.75,72940.0,-16.31,-16.75,-16.65,0,*68
1511762623.72,17597,6.75,72938.8,-16.31,-16.65,-16.75,0,*69
1511762624.97,17598,6.75,72942.0,-16.31,-16.75,-16.79,0,*6B
1511762626.21,17599,6.75,72938.0,-16.29,-16.75,-16.69,0,*62
1511762627.46,17600,6.75,72940.3,-16.29,-16.75,-16.69,0,*61
1511762628.7,17601,6.75,72940.8,-16.31,-16.79,-16.75,0,*68
1511762629.95,17602,6.75,72940.0,-16.31,-16.79,-16.79,0,*67
1511762631.19,17603,6.75,72938.5,-16.29,-16.75,-16.69,0,*62
1511762632.42,17604,6.75,72938.0,-16.29,-16.75,-16.75,0,*68
1511762633.66,17605,6.75,72936.5,-16.31,-16.89,-16.79,0,*6F
1511762634.9,17606,6.75,72934.0,-16.31,-16.89,-16.89,0,*63
1511762636.12,17607,6.75,72936.0,-16.29,-16.83,-16.83,0,*6B
1511762637.36,17608,6.75,72934.5,-16.31,-16.93,-16.79,0,*69
1511762638.61,17609,6.75,72936.0,-16.29,-16.75,-16.69,0,*68
1511762639.83,17610,6.75,72932.5,-16.29,-16.83,-16.75,0,*64
1511762641.07,17611,6.75,72932.8,-16.31,-16.89,-16.79,0,*6A
1511762642.31,17612,6.75,72932.8,-16.29,-16.83,-16.69,0,*6B
1511762643.54,17613,6.75,72932.8,-16.29,-16.83,-16.75,0,*67
1511762644.76,17614,6.75,72932.3,-16.29,-16.83,-16.75,0,*60
1511762646.0,17615,6.75,72928.0,-16.31,-16.93,-16.79,0,*65
1511762647.24,17616,6.75,72928.3,-16.31,-16.93,-16.89,0,*69
1511762648.46,17617,6.75,72932.0,-16.29,-16.83,-16.83,0,*6A
1511762649.7,17618,6.75,72934.8,-16.31,-16.89,-16.79,0,*63
1511762650.92,17619,6.75,72930.5,-16.29,-16.83,-16.75,0,*6D
1511762652.14,17620,6.75,72932.0,-16.29,-16.83,-16.83,0,*6E
1511762653.36,17621,6.75,72934.5,-16.29,-16.75,-16.83,0,*66
1511762654.58,17622,6.75,72934.0,-16.29,-16.89,-16.75,0,*6F
1511762655.79,17623,6.75,72936.3,-16.29,-16.89,-16.89,0,*6D
1511762657.01,17624,6.75,72932.5,-16.29,-16.89,-16.89,0,*6A
1511762658.22,17625,6.75,72934.5,-16.29,-16.89,-16.83,0,*61
1511762659.44,17626,6.75,72938.3,-16.29,-16.89,-16.83,0,*62
1511762660.68,17627,6.75,72938.0,-16.31,-16.93,-16.89,0,*6B
1511762661.89,17628,6.75,72936.5,-16.29,-16.89,-16.89,0,*66
1511762663.11,17629,6.75,72936.0,-16.29,-16.83,-16.83,0,*67
1511762664.32,17630,6.75,72936.5,-16.29,-16.97,-16.89,0,*60
1511762665.56,17631,6.75,72938.0,-16.29,-17.03,-16.89,0,*6D
1511762666.77,17632,6.75,72934.8,-16.29,-16.97,-16.97,0,*6D
1511762668.02,17633,6.75,72936.8,-16.29,-17.03,-16.97,0,*60
1511762669.26,17634,6.75,72936.8,-16.29,-17.03,-16.97,0,*67
1511762670.56,17635,6.75,72936.0,-16.31,-17.07,-17.07,0,*63
1511762671.83,17636,6.75,72934.5,-16.29,-17.03,-17.03,0,*69
1511762673.09,17637,6.75,72934.0,-16.29,-17.11,-17.03,0,*6B
1511762674.37,17638,6.75,72936.3,-16.29,-17.17,-17.11,0,*61
1511762675.64,17639,6.75,72938.0,-16.29,-17.17,-17.03,0,*63
1511762676.91,17640,6.75,72936.5,-16.29,-17.17,-17.11,0,*6E
1511762678.21,17641,6.75,72938.0,-16.31,-17.17,-17.21,0,*65
1511762679.47,17642,6.75,72932.8,-16.29,-17.11,-17.11,0,*6A
1511762680.78,17643,6.75,72932.5,-16.31,-17.17,-17.07,0,*63
1511762682.05,17644,6.75,72928.8,-16.29,-17.17,-17.11,0,*6A
1511762683.32,17645,6.75,72932.5,-16.29,-17.17,-17.17,0,*6D
1511762684.58,17646,6.75,72930.8,-16.29,-17.11,-17.17,0,*68
1511762685.85,17647,6.75,72934.3,-16.29,-17.17,-17.11,0,*69
1511762687.13,17648,6.75,72932.8,-16.29,-17.17,-17.03,0,*65
1511762688.36,17649,6.75,72934.3,-16.29,-17.11,-16.97,0,*6E
1511762689.67,17650,6.75,72932.3,-16.31,-17.21,-17.07,0,*64
1511762690.93,17651,6.75,72932.8,-16.29,-17.11,-17.03,0,*6B
1511762692.23,17652,6.75,72928.0,-16.31,-17.17,-17.03,0,*67
1511762693.54,17653,6.75,72934.3,-16.31,-17.17,-17.07,0,*62
1511762694.83,17654,6.75,72930.5,-16.31,-17.21,-17.17,0,*61
1511762696.13,17655,6.75,72934.0,-16.31,-17.07,-17.07,0,*65
1511762697.43,17656,6.75,72938.0,-16.31,-17.21,-17.07,0,*62
1511762698.7,17657,6.75,72936.8,-16.29,-17.11,-17.03,0,*6D
1511762700.0,17658,6.75,72936.3,-16.31,-17.17,-17.17,0,*68
1511762701.27,17659,6.75,72936.0,-16.29,-17.17,-17.03,0,*65
1511762702.51,17660,6.75,72938.5,-16.29,-17.17,-16.97,0,*63
1511762703.78,17661,6.75,72938.8,-16.29,-17.03,-17.03,0,*6B
1511762705.08,17662,6.75,72946.5,-16.31,-17.07,-17.03,0,*65
1511762706.29,17663,6.75,72940.0,-16.29,-16.97,-16.93,0,*6D
1511762707.53,17664,6.75,72936.8,-16.29,-17.03,-16.83,0,*67
1511762708.78,17665,6.75,72940.0,-16.31,-16.89,-16.79,0,*69
1511762710.02,17666,6.75,72942.3,-16.31,-16.89,-16.75,0,*66
1511762711.27,17667,6.75,72940.3,-16.31,-16.79,-16.75,0,*68
1511762712.54,17668,6.75,72942.5,-16.31,-16.75,-16.65,0,*6A
1511762713.79,17669,6.75,72940.3,-16.31,-16.75,-16.75,0,*6A
1511762715.04,17670,6.75,72936.0,-16.29,-16.59,-16.69,0,*68
1511762716.26,17671,6.75,72936.3,-16.29,-16.59,-16.59,0,*6A
1511762717.5,17672,6.75,72938.5,-16.29,-16.69,-16.59,0,*6A
1511762718.77,17673,6.75,72940.3,-16.29,-16.69,-16.69,0,*68
1511762720.02,17674,6.75,72934.8,-16.31,-16.75,-16.75,0,*66
1511762721.27,17675,6.75,72938.8,-16.29,-16.69,-16.59,0,*6D
1511762722.51,17676,6.75,72938.8,-16.29,-16.75,-16.69,0,*60
1511762723.73,17677,6.75,72934.0,-16.29,-16.75,-16.75,0,*6C
1511762725.0,17678,6.75,72938.8,-16.29,-16.69,-16.69,0,*63
1511762726.27,17679,6.75,72936.0,-16.27,-16.75,-16.69,0,*61
1511762727.54,17680,6.75,72938.5,-16.27,-16.83,-16.69,0,*6E
1511762728.76,17681,6.75,72932.0,-16.29,-16.83,-16.75,0,*6C
1511762729.97,17682,6.75,72936.3,-16.29,-16.83,-16.89,0,*6C
1511762731.2,17683,6.75,72934.5,-16.29,-16.83,-16.75,0,*6E
1511762732.42,17684,6.75,72936.5,-16.29,-16.89,-16.75,0,*63
1511762733.64,17685,6.75,72934.8,-16.29,-16.83,-16.75,0,*68
1511762734.86,17686,6.75,72936.8,-16.29,-16.89,-16.75,0,*61
1511762736.08,17687,6.75,72936.5,-16.29,-16.89,-16.75,0,*60
1511762737.3,17688,6.75,72934.0,-16.29,-16.83,-16.83,0,*6C
1511762738.52,17689,6.75,72938.0,-16.29,-16.83,-16.89,0,*67
1511762739.76,17690,6.75,72938.3,-16.27,-16.83,-16.83,0,*6B
1511762741.0,17691,6.75,72936.0,-16.27,-16.89,-16.83,0,*60
1511762742.27,17692,6.75,72940.3,-16.27,-16.83,-16.69,0,*6D
1511762743.51,17693,6.75,72938.8,-16.27,-16.83,-16.83,0,*68
1511762744.75,17694,6.75,72936.8,-16.27,-16.83,-16.83,0,*6F
1511762745.99,17695,6.75,72936.3,-16.27,-16.89,-16.89,0,*6E
1511762747.23,17696,6.75,72936.8,-16.27,-16.89,-16.83,0,*67
1511762748.47,17697,6.75,72936.5,-16.27,-16.89,-16.83,0,*66
1511762749.71,17698,6.75,72940.8,-16.27,-16.89,-16.89,0,*63
1511762750.95,17699,6.75,72938.3,-16.27,-16.97,-16.97,0,*62
1511762752.19,17700,6.75,72936.3,-16.23,-16.79,-16.83,0,*62
1511762753.43,17701,6.75,72940.0,-16.27,-16.89,-16.89,0,*62
1511762754.69,17702,6.75,72936.3,-16.27,-17.03,-16.89,0,*62
1511762755.93,17703,6.75,72938.3,-16.27,-16.97,-16.97,0,*60
1511762757.19,17704,6.75,72934.8,-16.27,-17.03,-16.97,0,*6B
1511762758.43,17705,6.75,72936.0,-16.27,-16.97,-16.89,0,*69
1511762759.69,17706,6.75,72936.5,-16.27,-17.03,-16.97,0,*69
1511762760.96,17707,6.75,72936.8,-16.27,-17.03,-16.97,0,*68
1511762762.22,17708,6.75,72936.3,-16.27,-17.03,-16.97,0,*67
1511762763.49,17709,6.75,72936.0,-16.27,-17.11,-16.97,0,*65
1511762764.77,17710,6.75,72938.5,-16.27,-17.11,-17.11,0,*62
1511762766.06,17711,6.75,72936.8,-16.27,-17.11,-17.03,0,*60
1511762767.36,17712,6.75,72932.0,-16.27,-17.17,-17.11,0,*66
1511762768.66,17713,6.75,72936.3,-16.27,-17.17,-17.11,0,*67
1511762769.95,17714,6.75,72934.3,-16.27,-17.17,-17.11,0,*60
1511762771.25,17715,6.75,72932.0,-16.23,-17.11,-17.07,0,*64
1511762772.54,17716,6.75,72938.0,-16.27,-17.17,-17.17,0,*64
1511762773.83,17717,6.75,72936.0,-16.27,-17.17,-17.11,0,*63
1511762775.13,17718,6.75,72936.8,-16.27,-17.17,-17.11,0,*6C
1511762776.42,17719,6.75,72934.3,-16.27,-17.17,-17.17,0,*6B
1511762777.71,17720,6.75,72938.3,-16.23,-17.11,-17.11,0,*65
1511762778.98,17721,6.75,72938.3,-16.29,-17.17,-17.17,0,*6E
1511762780.25,17722,6.75,72938.0,-16.29,-17.17,-17.17,0,*6D
1511762781.54,17723,6.75,72932.8,-16.27,-17.21,-17.11,0,*61
1511762782.78,17724,6.75,72936.3,-16.29,-17.31,-17.17,0,*6F
1511762784.04,17725,6.75,72934.8,-16.29,-17.21,-17.21,0,*6A
1511762785.31,17726,6.75,72938.3,-16.29,-17.21,-17.17,0,*6C
1511762786.57,17727,6.75,72934.8,-16.27,-17.31,-17.17,0,*62
1511762787.84,17728,6.75,72934.5,-16.29,-17.21,-17.17,0,*62
1511762789.1,17729,6.75,72936.5,-16.29,-17.21,-17.17,0,*63
1511762790.37,17730,6.75,72940.5,-16.29,-17.21,-17.17,0,*6B
1511762791.63,17731,6.75,72936.3,-16.29,-17.21,-17.17,0,*6A
1511762792.9,17732,6.75,72936.3,-16.29,-17.21,-17.21,0,*6C
1511762794.17,17733,6.75,72938.0,-16.29,-17.21,-17.17,0,*68
1511762795.46,17734,6.75,72936.3,-16.31,-17.25,-17.21,0,*67
1511762796.73,17735,6.75,72944.3,-16.29,-17.21,-17.17,0,*6E
1511762798.0,17736,6.75,72946.8,-16.31,-17.35,-17.21,0,*64
1511762799.27,17737,6.75,72944.3,-16.31,-17.35,-17.21,0,*65
1511762800.56,17738,6.75,72942.8,-16.31,-17.25,-17.21,0,*6B
1511762801.83,17739,6.75,72942.0,-16.29,-17.21,-17.17,0,*62
1511762803.1,17740,6.75,72942.3,-16.29,-17.21,-17.17,0,*6C
1511762804.39,17741,6.75,72940.5,-16.31,-17.21,-17.17,0,*64
1511762805.69,17742,6.75,72940.0,-16.31,-17.17,-17.07,0,*63
1511762806.99,17743,6.75,72940.8,-16.31,-17.17,-17.03,0,*66
1511762808.23,17744,6.75,72944.0,-16.31,-16.93,-16.89,0,*6F
1511762809.45,17745,6.75,72936.5,-16.29,-16.83,-16.83,0,*6C
1511762810.67,17746,6.75,72940.5,-16.29,-16.89,-16.83,0,*65
1511762811.9,17747,6.75,72940.3,-16.31,-16.93,-16.89,0,*6C
1511762813.12,17748,6.75,72944.8,-16.29,-16.83,-16.89,0,*6B
1511762814.34,17749,6.75,72946.3,-16.29,-16.89,-16.75,0,*63
1511762815.58,17750,6.75,72940.0,-16.31,-16.93,-16.75,0,*69
1511762816.83,17751,6.75,72944.5,-16.31,-16.79,-16.75,0,*6C
1511762818.07,17752,6.75,72946.0,-16.29,-16.75,-16.69,0,*67
1511762819.32,17753,6.75,72944.3,-16.27,-16.75,-16.75,0,*65
1511762820.54,17754,6.75,72944.0,-16.29,-16.75,-16.75,0,*6C
1511762821.79,17755,6.75,72944.0,-16.29,-16.75,-16.69,0,*60
1511762823.03,17756,6.75,72940.3,-16.29,-16.69,-16.75,0,*63
1511762824.26,17757,6.75,72944.8,-16.29,-16.75,-16.75,0,*6F
1511762825.48,17758,6.75,72946.0,-16.29,-16.75,-16.75,0,*60
1511762826.72,17759,6.75,72942.0,-16.29,-16.75,-16.69,0,*6C
1511762827.95,17760,6.75,72946.8,-16.29,-16.75,-16.75,0,*6B
1511762829.19,17761,6.75,72942.8,-16.31,-16.89,-16.75,0,*60
1511762830.44,17762,6.75,72942.5,-16.27,-16.75,-16.75,0,*67
1511762831.67,17763,6.75,72944.3,-16.29,-16.75,-16.75,0,*68
1511762832.89,17764,6.75,72938.5,-16.29,-16.83,-16.75,0,*66
1511762834.14,17765,6.75,72938.0,-16.27,-16.83,-16.75,0,*69
1511762835.38,17766,6.75,72936.3,-16.23,-16.79,-16.79,0,*67
1511762836.62,17767,6.75,72934.3,-16.27,-16.89,-16.75,0,*61
1511762837.87,17768,6.75,72938.3,-16.27,-16.83,-16.75,0,*64
1511762839.11,17769,6.75,72938.8,-16.27,-16.83,-16.83,0,*6C
1511762840.35,17770,6.75,72938.8,-16.27,-16.89,-16.83,0,*6E
1511762841.59,17771,6.75,72936.8,-16.27,-16.89,-16.89,0,*65
1511762842.83,17772,6.75,72930.0,-16.23,-16.79,-16.83,0,*67
1511762844.07,17773,6.75,72934.0,-16.27,-16.89,-16.89,0,*67
1511762845.3,17774,6.75,72928.8,-16.27,-16.97,-16.89,0,*6F
1511762846.57,17775,6.75,72930.8,-16.27,-17.03,-16.89,0,*62
1511762847.8,17776,6.75,72934.5,-16.23,-16.93,-16.83,0,*67
1511762849.05,17777,6.75,72934.3,-16.27,-16.97,-16.83,0,*66
1511762850.29,17778,6.75,72936.0,-16.23,-16.97,-16.83,0,*6D
1511762851.52,17779,6.75,72932.5,-16.27,-16.97,-16.89,0,*62
1511762852.76,17780,6.75,72934.3,-16.27,-16.97,-16.89,0,*64
1511762854.0,17781,6.75,72930.8,-16.27,-16.97,-16.97,0,*6A
1511762855.23,17782,6.75,72928.0,-16.27,-16.97,-16.89,0,*66
1511762856.47,17783,6.75,72932.3,-16.27,-16.97,-16.89,0,*67
1511762857.7,17784,6.75,72936.5,-16.27,-16.97,-16.89,0,*60
1511762858.97,17785,6.75,72940.0,-16.27,-17.03,-16.97,0,*62
1511762860.21,17786,6.75,72940.5,-16.23,-16.97,-16.83,0,*6C
1511762861.47,17787,6.75,72938.8,-16.27,-17.03,-16.97,0,*60
1511762862.71,17788,6.75,72940.8,-16.27,-16.97,-16.97,0,*63
1511762863.98,17789,6.75,72944.8,-16.27,-16.97,-17.03,0,*6E
1511762865.22,17790,6.75,72942.0,-16.27,-16.97,-16.97,0,*6A
1511762866.46,17791,6.75,72940.5,-16.27,-16.97,-16.97,0,*6B
1511762867.69,17792,6.75,72942.8,-16.27,-16.97,-16.97,0,*68
1511762868.96,17793,6.75,72942.0,-16.27,-17.03,-16.89,0,*6A
1511762870.22,17794,6.75,72942.5,-16.27,-17.03,-16.97,0,*62
1511762871.48,17795,6.75,72942.8,-16.27,-17.03,-16.89,0,*6C
1511762872.72,17796,6.75,72946.0,-16.27,-16.89,-16.89,0,*6C
1511762873.96,17797,6.75,72940.3,-16.23,-16.79,-16.83,0,*6C
1511762875.21,17798,6.75,72944.0,-16.27,-16.83,-16.83,0,*62
1511762876.45,17799,6.75,72942.3,-16.27,-16.83,-16.83,0,*63
1511762877.69,17800,6.75,72946.5,-16.23,-16.83,-16.79,0,*6D
1511762878.93,17801,6.75,72946.0,-16.23,-16.83,-16.79,0,*6C
1511762880.18,17802,6.75,72942.8,-16.27,-16.89,-16.83,0,*64
1511762881.42,17803,6.75,72946.0,-16.27,-16.89,-16.83,0,*65
1511762882.66,17804,6.75,72946.8,-16.27,-16.89,-16.83,0,*62
1511762883.9,17805,6.75,72942.5,-16.27,-16.83,-16.83,0,*69
1511762885.17,17806,6.75,72942.8,-16.23,-16.79,-16.69,0,*6F
1511762886.44,17807,6.75,72942.8,-16.23,-16.69,-16.83,0,*6B
1511762887.68,17808,6.75,72942.5,-16.23,-16.83,-16.83,0,*60
1511762888.92,17809,6.75,72940.8,-16.23,-16.83,-16.79,0,*64
1511762890.16,17810,6.75,72942.5,-16.23,-16.79,-16.79,0,*69
1511762891.41,17811,6.75,72938.8,-16.27,-16.83,-16.83,0,*6C
1511762892.65,17812,6.75,72936.5,-16.23,-16.83,-16.79,0,*6E
1511762893.89,17813,6.75,72942.3,-16.27,-16.89,-16.83,0,*64
1511762895.13,17814,6.75,72940.3,-16.23,-16.93,-16.79,0,*69
1511762896.37,17815,6.75,72938.3,-16.23,-16.83,-16.83,0,*6C
1511762897.61,17816,6.75,72942.5,-16.27,-16.89,-16.89,0,*6B
1511762898.85,17817,6.75,72940.5,-16.23,-16.83,-16.79,0,*6B